QPF
0.03 0.03 0.05 0.06 0.10 0.09 0.08 0.08 0.08 0.10 0.11 0.11 0.14 0.20 0.21 0.14 0.10 0.10 0.10 0.09 0.09 0.11 0.10 0.05 0.02 0.01 0.00 0.00 0.01 0.01 0.02 0.02 0.03 0.04 0.03 0.03 0.02 0.02 0.03 0.03 0.02 0.01 0.01
0.02 0.02 0.03 0.05 0.09 0.09 0.09 0.11 0.11 0.10 0.10 0.11 0.12 0.17 0.20 0.20 0.15 0.16 0.15 0.09 0.06 0.06 0.08 0.07 0.03 0.01 0.00 0.00 0.00 0.01 0.02 0.02 0.03 0.04 0.03 0.03 0.02 0.03 0.03 0.02 0.01 0.01 0.01
0.01 0.01 0.01 0.03 0.05 0.07 0.09 0.10 0.11 0.12 0.09 0.09 0.12 0.18 0.16 0.18 0.19 0.21 0.19 0.12 0.05 0.04 0.06 0.06 0.04 0.02 0.00 0.00 0.00 0.00 0.01 0.02 0.03 0.03 0.03 0.03 0.02 0.03 0.03 0.02 0.00 0.01 0.01
0.01 0.01 0.01 0.01 0.02 0.04 0.07 0.08 0.09 0.09 0.09 0.10 0.12 0.19 0.20 0.16 0.15 0.17 0.16 0.15 0.11 0.05 0.03 0.04 0.03 0.02 0.01 0.00 0.01 0.01 0.01 0.01 0.02 0.03 0.04 0.04 0.02 0.02 0.02 0.01 0.00 0.01 0.01
0.01 0.01 0.01 0.01 0.02 0.03 0.04 0.07 0.09 0.09 0.07 0.07 0.09 0.11 0.15 0.17 0.15 0.13 0.13 0.14 0.15 0.09 0.04 0.02 0.03 0.02 0.02 0.01 0.01 0.01 0.01 0.01 0.01 0.02 0.02 0.04 0.02 0.01 0.01 0.01 0.01 0.01 0.00
0.00 0.00 0.01 0.01 0.02 0.02 0.03 0.05 0.09 0.11 0.09 0.07 0.09 0.08 0.08 0.11 0.13 0.14 0.11 0.10 0.11 0.13 0.10 0.05 0.02 0.01 0.02 0.01 0.01 0.01 0.01 0.00 0.01 0.01 0.01 0.01 0.02 0.01 0.01 0.01 0.02 0.01 0.00
0.00 0.01 0.01 0.01 0.01 0.02 0.02 0.03 0.06 0.08 0.09 0.11 0.12 0.08 0.07 0.06 0.09 0.13 0.12 0.10 0.11 0.11 0.14 0.13 0.06 0.02 0.01 0.01 0.01 0.01 0.01 0.01 0.00 0.00 0.00 0.01 0.01 0.01 0.01 0.01 0.01 0.02 0.01
0.00 0.00 0.01 0.01 0.01 0.01 0.01 0.01 0.03 0.05 0.06 0.10 0.11 0.12 0.10 0.07 0.05 0.08 0.12 0.11 0.10 0.12 0.12 0.13 0.13 0.08 0.04 0.01 0.00 0.00 0.01 0.01 0.01 0.01 0.01 0.01 0.01 0.01 0.01 0.01 0.01 0.01 0.01
0.00 0.01 0.01 0.01 0.01 0.01 0.00 0.00 0.01 0.02 0.05 0.08 0.11 0.15 0.14 0.11 0.10 0.08 0.06 0.07 0.09 0.11 0.12 0.15 0.16 0.15 0.11 0.05 0.02 0.01 0.01 0.01 0.01 0.01 0.01 0.02 0.01 0.01 0.01 0.01 0.01 0.01 0.01
0.00 0.00 0.00 0.01 0.01 0.00 0.00 0.00 0.01 0.02 0.03 0.05 0.08 0.11 0.11 0.12 0.12 0.08 0.05 0.06 0.09 0.09 0.10 0.12 0.15 0.18 0.18 0.13 0.09 0.05 0.02 0.01 0.02 0.02 0.02 0.02 0.01 0.01 0.01 0.01 0.01 0.02 0.02
0.00 0.00 0.00 0.00 0.01 0.01 0.00 0.00 0.01 0.02 0.02 0.03 0.04 0.06 0.08 0.08 0.07 0.05 0.04 0.06 0.07 0.07 0.09 0.11 0.13 0.17 0.19 0.18 0.14 0.12 0.08 0.03 0.02 0.03 0.03 0.02 0.02 0.01 0.01 0.01 0.01 0.01 0.02
0.00 0.00 0.00 0.00 0.01 0.01 0.01 0.01 0.00 0.01 0.01 0.02 0.03 0.04 0.05 0.06 0.06 0.06 0.03 0.03 0.04 0.04 0.05 0.06 0.09 0.11 0.13 0.15 0.16 0.20 0.20 0.11 0.05 0.05 0.04 0.04 0.04 0.03 0.02 0.01 0.01 0.01 0.01
0.00 0.00 0.00 0.00 0.00 0.00 0.01 0.00 0.00 0.00 0.01 0.01 0.02 0.02 0.03 0.03 0.04 0.05 0.04 0.02 0.02 0.03 0.03 0.02 0.03 0.07 0.10 0.11 0.14 0.23 0.29 0.24 0.14 0.08 0.06 0.04 0.04 0.04 0.04 0.03 0.03 0.02 0.02
0.00 0.00 0.00 0.00 0.00 0.00 0.00 0.00 0.00 0.00 0.00 0.01 0.01 0.02 0.02 0.02 0.03 0.04 0.04 0.04 0.02 0.02 0.02 0.01 0.02 0.03 0.06 0.09 0.12 0.20 0.23 0.25 0.20 0.12 0.07 0.04 0.03 0.03 0.03 0.05 0.06 0.06 0.05
0.00 0.00 0.00 0.00 0.00 0.00 0.00 0.01 0.01 0.00 0.00 0.00 0.01 0.02 0.02 0.02 0.03 0.02 0.03 0.05 0.04 0.02 0.02 0.02 0.02 0.02 0.04 0.06 0.10 0.15 0.17 0.21 0.20 0.15 0.08 0.05 0.04 0.03 0.03 0.03 0.04 0.05 0.05
0.00 0.00 0.00 0.00 0.00 0.00 0.00 0.00 0.00 0.00 0.00 0.00 0.00 0.01 0.02 0.02 0.02 0.02 0.03 0.04 0.05 0.03 0.02 0.02 0.02 0.03 0.06 0.07 0.08 0.11 0.15 0.21 0.21 0.17 0.12 0.07 0.04 0.03 0.03 0.03 0.03 0.03 0.03
0.00 0.00 0.00 0.00 0.00 0.00 0.00 0.00 0.00 0.00 0.00 0.00 0.00 0.01 0.01 0.01 0.01 0.02 0.02 0.03 0.04 0.03 0.02 0.02 0.02 0.03 0.05 0.07 0.08 0.09 0.13 0.16 0.16 0.17 0.15 0.10 0.06 0.05 0.04 0.04 0.03 0.03 0.03
0.00 0.00 0.00 0.00 0.00 0.00 0.00 0.00 0.00 0.00 0.01 0.00 0.00 0.00 0.01 0.01 0.01 0.01 0.01 0.02 0.04 0.05 0.04 0.03 0.03 0.03 0.03 0.04 0.07 0.10 0.13 0.12 0.11 0.13 0.15 0.13 0.09 0.06 0.05 0.04 0.03 0.03 0.03
0.00 0.00 0.00 0.00 0.00 0.00 0.00 0.00 0.00 0.01 0.01 0.00 0.01 0.01 0.01 0.01 0.01 0.02 0.02 0.01 0.02 0.04 0.04 0.04 0.03 0.03 0.04 0.04 0.05 0.06 0.10 0.14 0.13 0.13 0.15 0.16 0.13 0.09 0.07 0.05 0.04 0.03 0.03
0.00 0.00 0.00 0.00 0.00 0.00 0.00 0.00 0.00 0.01 0.00 0.00 0.00 0.01 0.02 0.02 0.01 0.01 0.01 0.02 0.02 0.03 0.04 0.04 0.03 0.04 0.04 0.05 0.06 0.05 0.06 0.09 0.11 0.13 0.14 0.14 0.15 0.15 0.11 0.08 0.06 0.05 0.05
0.00 0.00 0.00 0.00 0.00 0.00 0.00 0.00 0.00 0.00 0.00 0.00 0.00 0.01 0.01 0.03 0.03 0.02 0.02 0.02 0.02 0.02 0.03 0.03 0.04 0.05 0.06 0.06 0.05 0.04 0.05 0.06 0.10 0.15 0.17 0.14 0.15 0.15 0.12 0.10 0.08 0.07 0.06
0.00 0.00 0.00 0.00 0.00 0.00 0.00 0.00 0.00 0.00 0.00 0.00 0.00 0.01 0.01 0.02 0.02 0.02 0.03 0.02 0.02 0.01 0.02 0.02 0.02 0.03 0.04 0.06 0.07 0.07 0.06 0.06 0.06 0.08 0.12 0.12 0.16 0.15 0.12 0.10 0.09 0.09 0.08
0.00 0.00 0.00 0.00 0.00 0.00 0.00 0.00 0.00 0.00 0.00 0.00 0.00 0.00 0.00 0.01 0.01 0.01 0.01 0.01 0.02 0.01 0.02 0.02 0.01 0.01 0.02 0.04 0.06 0.07 0.07 0.06 0.04 0.05 0.11 0.10 0.11 0.11 0.12 0.13 0.15 0.13 0.13
0.00 0.00 0.00 0.00 0.00 0.00 0.00 0.00 0.00 0.00 0.00 0.00 0.00 0.00 0.00 0.01 0.01 0.00 0.00 0.00 0.01 0.02 0.02 0.02 0.01 0.02 0.03 0.03 0.05 0.05 0.07 0.08 0.07 0.07 0.10 0.10 0.09 0.09 0.11 0.13 0.17 0.18 0.18
0.00 0.00 0.00 0.00 0.00 0.00 0.00 0.00 0.00 0.00 0.00 0.00 0.00 0.01 0.01 0.00 0.00 0.00 0.00 0.00 0.01 0.02 0.03 0.03 0.02 0.03 0.04 0.04 0.05 0.05 0.05 0.05 0.05 0.05 0.06 0.07 0.07 0.10 0.13 0.15 0.18 0.20 0.20
0.00 0.00 0.00 0.00 0.00 0.00 0.00 0.00 0.00 0.00 0.00 0.00 0.00 0.00 0.00 0.00 0.00 0.00 0.00 0.00 0.00 0.01 0.01 0.02 0.02 0.02 0.03 0.02 0.04 0.04 0.04 0.05 0.04 0.04 0.04 0.06 0.07 0.10 0.13 0.17 0.19 0.22 0.26
MSLP
1011.96 1011.63 1011.28 1010.95 1010.69 1010.56 1010.57 1010.73 1011.02 1011.38 1011.76 1012.10 1012.37 1012.53 1012.60 1012.58 1012.52 1012.44 1012.38 1012.36 1012.41 1012.51 1012.66 1012.84 1013.04 1013.24 1013.43 1013.60 1013.76 1013.90 1014.04 1014.19 1014.35 1014.55 1014.78 1015.04 1015.32 1015.61 1015.87 1016.10 1016.28 1016.42 1016.52
1011.72 1011.38 1011.02 1010.69 1010.45 1010.34 1010.37 1010.56 1010.86 1011.24 1011.64 1012.02 1012.32 1012.51 1012.60 1012.60 1012.53 1012.43 1012.34 1012.29 1012.30 1012.37 1012.51 1012.69 1012.91 1013.13 1013.36 1013.56 1013.74 1013.91 1014.07 1014.23 1014.41 1014.63 1014.87 1015.15 1015.44 1015.73 1016.01 1016.25 1016.44 1016.59 1016.70
1011.53 1011.19 1010.85 1010.56 1010.35 1010.27 1010.32 1010.51 1010.81 1011.19 1011.59 1011.96 1012.27 1012.48 1012.59 1012.60 1012.53 1012.42 1012.31 1012.22 1012.19 1012.23 1012.33 1012.50 1012.72 1012.96 1013.20 1013.44 1013.65 1013.85 1014.03 1014.22 1014.42 1014.65 1014.91 1015.20 1015.50 1015.81 1016.09 1016.35 1016.56 1016.73 1016.86
1011.41 1011.09 1010.80 1010.56 1010.40 1010.34 1010.41 1010.59 1010.86 1011.20 1011.57 1011.92 1012.21 1012.42 1012.53 1012.55 1012.49 1012.38 1012.25 1012.14 1012.07 1012.07 1012.14 1012.28 1012.48 1012.72 1012.98 1013.24 1013.48 1013.71 1013.93 1014.14 1014.36 1014.61 1014.88 1015.17 1015.49 1015.80 1016.10 1016.38 1016.61 1016.80 1016.97
1011.39 1011.11 1010.86 1010.68 1010.57 1010.55 1010.61 1010.77 1010.99 1011.27 1011.57 1011.87 1012.12 1012.32 1012.43 1012.46 1012.41 1012.31 1012.18 1012.05 1011.95 1011.91 1011.94 1012.04 1012.22 1012.45 1012.71 1012.98 1013.25 1013.51 1013.75 1013.99 1014.24 1014.49 1014.77 1015.08 1015.40 1015.72 1016.03 1016.32 1016.57 1016.79 1016.99
1011.46 1011.22 1011.03 1010.90 1010.84 1010.84 1010.89 1011.00 1011.16 1011.35 1011.57 1011.80 1012.00 1012.17 1012.28 1012.33 1012.30 1012.22 1012.10 1011.97 1011.85 1011.78 1011.77 1011.84 1011.98 1012.19 1012.44 1012.71 1012.99 1013.27 1013.53 1013.79 1014.05 1014.32 1014.61 1014.91 1015.23 1015.56 1015.87 1016.17 1016.44 1016.69 1016.90
1011.62 1011.40 1011.26 1011.17 1011.14 1011.15 1011.18 1011.24 1011.32 1011.43 1011.56 1011.71 1011.86 1012.01 1012.12 1012.18 1012.19 1012.14 1012.04 1011.92 1011.79 1011.69 1011.65 1011.68 1011.78 1011.95 1012.18 1012.44 1012.72 1013.00 1013.28 1013.55 1013.82 1014.10 1014.39 1014.69 1015.01 1015.33 1015.65 1015.96 1016.24 1016.50 1016.73
1011.83 1011.63 1011.51 1011.45 1011.43 1011.43 1011.44 1011.44 1011.46 1011.48 1011.54 1011.62 1011.73 1011.85 1011.97 1012.06 1012.10 1012.08 1012.01 1011.90 1011.77 1011.65 1011.57 1011.56 1011.61 1011.75 1011.94 1012.18 1012.45 1012.73 1013.01 1013.28 1013.56 1013.84 1014.13 1014.44 1014.75 1015.07 1015.39 1015.69 1015.98 1016.24 1016.49
1012.07 1011.87 1011.75 1011.70 1011.68 1011.66 1011.64 1011.60 1011.56 1011.53 1011.52 1011.56 1011.63 1011.74 1011.86 1011.97 1012.04 1012.05 1012.00 1011.90 1011.77 1011.63 1011.52 1011.46 1011.47 1011.55 1011.70 1011.91 1012.15 1012.42 1012.69 1012.97 1013.25 1013.54 1013.83 1014.14 1014.45 1014.77 1015.09 1015.40 1015.68 1015.95 1016.20
1012.32 1012.10 1011.97 1011.91 1011.87 1011.84 1011.79 1011.72 1011.64 1011.57 1011.52 1011.53 1011.59 1011.69 1011.81 1011.93 1012.01 1012.04 1012.00 1011.90 1011.75 1011.59 1011.44 1011.33 1011.29 1011.33 1011.43 1011.60 1011.81 1012.06 1012.32 1012.59 1012.88 1013.17 1013.48 1013.80 1014.12 1014.45 1014.77 1015.08 1015.37 1015.64 1015.89
1012.56 1012.32 1012.18 1012.09 1012.03 1011.98 1011.91 1011.82 1011.72 1011.62 1011.56 1011.55 1011.60 1011.68 1011.80 1011.91 1012.00 1012.01 1011.96 1011.85 1011.68 1011.48 1011.30 1011.15 1011.06 1011.05 1011.11 1011.23 1011.41 1011.62 1011.87 1012.14 1012.42 1012.73 1013.05 1013.39 1013.73 1014.08 1014.42 1014.74 1015.04 1015.31 1015.57
1012.78 1012.53 1012.36 1012.25 1012.17 1012.10 1012.02 1011.92 1011.81 1011.71 1011.64 1011.62 1011.65 1011.72 1011.82 1011.91 1011.96 1011.95 1011.88 1011.73 1011.53 1011.31 1011.09 1010.91 1010.77 1010.71 1010.72 1010.80 1010.93 1011.12 1011.34 1011.60 1011.88 1012.20 1012.54 1012.91 1013.28 1013.65 1014.01 1014.36 1014.67 1014.96 1015.22
1012.96 1012.72 1012.53 1012.41 1012.31 1012.23 1012.14 1012.04 1011.93 1011.83 1011.76 1011.73 1011.73 1011.78 1011.83 1011.88 1011.89 1011.84 1011.73 1011.55 1011.32 1011.08 1010.83 1010.61 1010.45 1010.35 1010.31 1010.34 1010.43 1010.56 1010.75 1010.99 1011.27 1011.59 1011.95 1012.34 1012.74 1013.15 1013.54 1013.91 1014.24 1014.55 1014.82
1013.11 1012.88 1012.70 1012.56 1012.46 1012.37 1012.28 1012.17 1012.07 1011.97 1011.89 1011.84 1011.82 1011.82 1011.83 1011.82 1011.78 1011.68 1011.53 1011.33 1011.08 1010.82 1010.56 1010.33 1010.14 1010.00 1009.93 1009.90 1009.93 1010.02 1010.16 1010.36 1010.62 1010.93 1011.30 1011.70 1012.13 1012.56 1012.99 1013.39 1013.75 1014.07 1014.37
1013.22 1013.01 1012.84 1012.71 1012.61 1012.52 1012.43 1012.33 1012.22 1012.12 1012.03 1011.95 1011.89 1011.84 1011.80 1011.73 1011.64 1011.50 1011.32 1011.10 1010.85 1010.59 1010.34 1010.11 1009.91 1009.75 1009.63 1009.55 1009.52 1009.54 1009.62 1009.76 1009.97 1010.26 1010.61 1011.02 1011.46 1011.92 1012.37 1012.79 1013.17 1013.52 1013.84
1013.28 1013.10 1012.96 1012.85 1012.76 1012.67 1012.58 1012.48 1012.37 1012.26 1012.14 1012.03 1011.93 1011.83 1011.73 1011.61 1011.47 1011.30 1011.11 1010.89 1010.66 1010.43 1010.20 1009.99 1009.80 1009.62 1009.46 1009.33 1009.23 1009.17 1009.17 1009.24 1009.39 1009.63 1009.95 1010.34 1010.77 1011.24 1011.69 1012.13 1012.54 1012.90 1013.24
1013.30 1013.17 1013.06 1012.97 1012.89 1012.81 1012.72 1012.62 1012.50 1012.36 1012.22 1012.07 1011.93 1011.78 1011.63 1011.47 1011.30 1011.12 1010.93 1010.73 1010.54 1010.35 1010.16 1009.98 1009.80 1009.62 1009.43 1009.24 1009.07 1008.93 1008.84 1008.82 1008.89 1009.06 1009.33 1009.68 1010.10 1010.55 1011.00 1011.44 1011.86 1012.24 1012.59
1013.28 1013.20 1013.12 1013.06 1012.99 1012.92 1012.83 1012.72 1012.58 1012.43 1012.25 1012.07 1011.88 1011.69 1011.50 1011.31 1011.12 1010.94 1010.76 1010.60 1010.45 1010.31 1010.17 1010.03 1009.87 1009.68 1009.47 1009.24 1009.00 1008.78 1008.60 1008.49 1008.48 1008.58 1008.78 1009.08 1009.46 1009.88 1010.32 1010.75 1011.16 1011.54 1011.91
1013.25 1013.20 1013.15 1013.11 1013.06 1012.99 1012.90 1012.77 1012.62 1012.44 1012.24 1012.03 1011.80 1011.58 1011.35 1011.14 1010.94 1010.76 1010.60 1010.47 1010.36 1010.26 1010.16 1010.06 1009.92 1009.73 1009.51 1009.24 1008.95 1008.66 1008.41 1008.22 1008.13 1008.16 1008.30 1008.54 1008.87 1009.26 1009.67 1010.08 1010.48 1010.85 1011.21
1013.18 1013.16 1013.14 1013.12 1013.07 1013.01 1012.91 1012.77 1012.60 1012.41 1012.18 1011.94 1011.69 1011.44 1011.19 1010.95 1010.74 1010.55 1010.40 1010.28 1010.20 1010.13 1010.07 1009.98 1009.86 1009.68 1009.44 1009.15 1008.83 1008.50 1008.19 1007.95 1007.80 1007.77 1007.85 1008.04 1008.33 1008.67 1009.05 1009.43 1009.81 1010.17 1010.52
1013.08 1013.08 1013.08 1013.06 1013.02 1012.95 1012.84 1012.70 1012.52 1012.31 1012.08 1011.82 1011.55 1011.28 1011.01 1010.75 1010.52 1010.32 1010.15 1010.03 1009.94 1009.88 1009.82 1009.74 1009.62 1009.45 1009.21 1008.92 1008.58 1008.23 1007.91 1007.63 1007.45 1007.38 1007.42 1007.57 1007.81 1008.12 1008.46 1008.81 1009.16 1009.50 1009.84
1012.92 1012.93 1012.93 1012.91 1012.87 1012.79 1012.68 1012.53 1012.36 1012.15 1011.92 1011.66 1011.39 1011.11 1010.83 1010.55 1010.29 1010.05 1009.86 1009.70 1009.59 1009.50 1009.42 1009.33 1009.21 1009.04 1008.81 1008.52 1008.20 1007.85 1007.53 1007.25 1007.06 1006.97 1006.98 1007.10 1007.31 1007.58 1007.88 1008.20 1008.52 1008.83 1009.15
1012.68 1012.68 1012.68 1012.65 1012.59 1012.51 1012.40 1012.26 1012.09 1011.90 1011.69 1011.46 1011.20 1010.93 1010.64 1010.35 1010.06 1009.79 1009.54 1009.33 1009.16 1009.02 1008.90 1008.78 1008.64 1008.47 1008.26 1007.99 1007.69 1007.38 1007.08 1006.82 1006.63 1006.53 1006.54 1006.63 1006.80 1007.03 1007.30 1007.58 1007.87 1008.15 1008.45
1012.31 1012.31 1012.28 1012.24 1012.17 1012.08 1011.97 1011.85 1011.71 1011.56 1011.39 1011.20 1010.99 1010.74 1010.47 1010.17 1009.86 1009.54 1009.24 1008.97 1008.72 1008.52 1008.34 1008.18 1008.02 1007.85 1007.64 1007.40 1007.14 1006.87 1006.60 1006.37 1006.20 1006.10 1006.09 1006.16 1006.29 1006.49 1006.71 1006.95 1007.20 1007.46 1007.73
1011.83 1011.80 1011.75 1011.68 1011.59 1011.50 1011.40 1011.30 1011.20 1011.11 1011.00 1010.88 1010.73 1010.53 1010.29 1010.01 1009.69 1009.34 1008.99 1008.65 1008.34 1008.07 1007.84 1007.63 1007.44 1007.26 1007.06 1006.85 1006.62 1006.39 1006.16 1005.95 1005.79 1005.69 1005.66 1005.70 1005.79 1005.93 1006.11 1006.31 1006.52 1006.74 1006.99
1011.24 1011.18 1011.09 1010.99 1010.88 1010.77 1010.69 1010.62 1010.57 1010.54 1010.52 1010.48 1010.41 1010.29 1010.11 1009.86 1009.55 1009.19 1008.81 1008.42 1008.05 1007.72 1007.43 1007.18 1006.96 1006.77 1006.59 1006.40 1006.20 1006.00 1005.80 1005.61 1005.45 1005.34 1005.27 1005.26 1005.30 1005.39 1005.51 1005.65 1005.82 1006.01 1006.24
Thickness
5708 5712 5715 5719 5722 5725 5727 5730 5732 5733 5735 5737 5740 5742 5744 5746 5747 5749 5750 5751 5752 5752 5752 5752 5752 5752 5752 5752 5752 5753 5752 5752 5752 5752 5751 5751 5751 5750 5750 5750 5749 5749 5748
5702 5705 5709 5712 5716 5719 5722 5725 5727 5729 5732 5733 5735 5738 5741 5743 5745 5747 5749 5750 5751 5752 5753 5752 5752 5752 5752 5752 5752 5752 5752 5752 5752 5751 5751 5751 5750 5749 5749 5748 5748 5747 5747
5697 5700 5702 5706 5710 5714 5717 5720 5722 5725 5727 5729 5731 5734 5738 5741 5742 5744 5746 5748 5749 5750 5752 5752 5753 5752 5752 5752 5752 5752 5752 5752 5751 5751 5751 5750 5749 5748 5747 5747 5747 5746 5746
5692 5694 5697 5700 5704 5708 5712 5714 5716 5718 5721 5724 5726 5730 5733 5736 5739 5740 5742 5744 5747 5749 5751 5751 5752 5752 5752 5752 5752 5752 5752 5752 5751 5751 5751 5750 5749 5748 5747 5746 5746 5745 5745
5687 5689 5691 5694 5699 5702 5705 5709 5711 5713 5716 5719 5722 5725 5728 5730 5734 5737 5739 5742 5744 5747 5749 5750 5751 5751 5751 5751 5752 5752 5752 5752 5752 5751 5750 5750 5749 5748 5746 5745 5745 5744 5744
5682 5684 5687 5689 5693 5696 5699 5702 5705 5709 5711 5714 5718 5721 5724 5727 5730 5732 5735 5738 5741 5744 5747 5748 5749 5749 5750 5751 5751 5752 5752 5752 5752 5751 5750 5750 5748 5747 5746 5745 5744 5743 5743
5678 5680 5682 5684 5687 5690 5692 5696 5699 5702 5705 5709 5710 5712 5718 5724 5726 5729 5732 5734 5737 5741 5744 5745 5747 5748 5749 5750 5750 5751 5751 5752 5752 5751 5750 5750 5748 5747 5746 5745 5744 5743 5742
5675 5677 5677 5679 5682 5684 5687 5690 5693 5695 5698 5702 5703 5703 5705 5711 5719 5726 5728 5730 5733 5736 5739 5742 5744 5746 5748 5749 5749 5750 5750 5751 5751 5750 5750 5749 5748 5747 5746 5744 5743 5742 5742
5672 5673 5674 5675 5677 5679 5681 5684 5687 5689 5690 5695 5698 5698 5696 5698 5707 5717 5723 5727 5729 5732 5735 5738 5740 5742 5745 5746 5748 5748 5748 5749 5749 5749 5749 5748 5747 5746 5745 5744 5743 5742 5741
5670 5671 5671 5672 5673 5675 5677 5680 5683 5685 5686 5687 5691 5695 5696 5698 5697 5701 5711 5719 5723 5726 5730 5733 5736 5738 5740 5743 5744 5746 5747 5747 5747 5748 5748 5748 5747 5745 5744 5743 5742 5741 5740
5669 5669 5670 5670 5671 5672 5673 5676 5678 5680 5682 5683 5684 5688 5690 5693 5695 5694 5697 5706 5713 5720 5724 5728 5731 5734 5736 5738 5740 5742 5744 5745 5745 5746 5746 5746 5745 5745 5743 5742 5741 5740 5739
5667 5668 5668 5668 5669 5669 5670 5672 5673 5675 5677 5679 5680 5682 5684 5685 5687 5689 5691 5695 5701 5711 5718 5723 5726 5729 5732 5734 5736 5738 5740 5742 5742 5743 5743 5744 5743 5743 5742 5741 5740 5739 5738
5666 5666 5667 5667 5667 5667 5668 5668 5669 5670 5672 5674 5675 5677 5679 5681 5683 5685 5686 5688 5693 5701 5709 5716 5721 5724 5727 5730 5732 5734 5736 5738 5739 5740 5740 5741 5741 5741 5741 5740 5739 5738 5737
5667 5667 5667 5666 5665 5665 5665 5665 5665 5666 5668 5669 5671 5672 5674 5676 5679 5680 5682 5682 5684 5689 5697 5705 5713 5718 5721 5724 5728 5730 5731 5733 5734 5735 5737 5737 5738 5738 5738 5738 5737 5737 5736
5670 5669 5667 5665 5664 5663 5662 5662 5661 5662 5663 5664 5665 5667 5668 5671 5673 5675 5677 5678 5677 5678 5684 5694 5701 5710 5714 5717 5721 5723 5726 5729 5730 5731 5733 5734 5734 5735 5735 5735 5734 5734 5733
5670 5668 5667 5665 5663 5661 5660 5658 5657 5657 5658 5659 5660 5661 5662 5664 5666 5669 5670 5672 5673 5674 5676 5685 5691 5699 5705 5710 5713 5716 5720 5723 5725 5726 5728 5729 5730 5731 5731 5732 5731 5731 5731
5671 5668 5666 5664 5662 5660 5658 5656 5654 5653 5653 5653 5654 5655 5656 5658 5659 5661 5663 5664 5666 5668 5670 5676 5683 5689 5694 5699 5704 5708 5711 5714 5718 5721 5722 5723 5724 5725 5727 5727 5727 5727 5727
5671 5669 5666 5663 5661 5658 5656 5653 5651 5649 5648 5647 5648 5649 5650 5652 5652 5653 5654 5656 5657 5660 5662 5666 5672 5678 5683 5689 5694 5698 5703 5707 5710 5714 5716 5717 5719 5720 5721 5722 5723 5723 5723
5671 5669 5666 5663 5660 5657 5655 5652 5649 5646 5645 5644 5644 5644 5644 5644 5644 5645 5646 5647 5649 5652 5654 5657 5662 5667 5673 5679 5683 5688 5693 5698 5702 5706 5708 5710 5712 5714 5716 5717 5717 5718 5718
5671 5668 5666 5663 5660 5657 5654 5651 5647 5645 5643 5642 5641 5641 5641 5640 5639 5639 5640 5640 5641 5642 5644 5648 5652 5657 5662 5668 5672 5676 5681 5687 5692 5697 5700 5704 5706 5708 5709 5711 5712 5713 5713
5672 5669 5666 5663 5660 5657 5655 5651 5647 5645 5642 5640 5640 5639 5638 5638 5638 5637 5636 5634 5634 5634 5635 5638 5642 5647 5651 5655 5660 5666 5670 5676 5681 5687 5691 5695 5698 5700 5702 5704 5706 5707 5708
5672 5669 5666 5663 5660 5658 5656 5653 5649 5645 5641 5639 5637 5637 5637 5637 5636 5635 5634 5633 5632 5630 5630 5631 5634 5638 5642 5647 5652 5656 5660 5665 5670 5679 5681 5686 5690 5693 5697 5699 5702 5702 5703
5672 5668 5666 5663 5660 5658 5657 5654 5651 5646 5642 5639 5637 5635 5635 5635 5632 5630 5630 5630 5629 5629 5630 5629 5630 5633 5636 5641 5645 5649 5653 5656 5663 5669 5671 5676 5681 5686 5691 5693 5696 5697 5699
5671 5668 5666 5664 5661 5659 5658 5655 5652 5647 5643 5640 5637 5635 5633 5632 5631 5629 5627 5626 5626 5627 5627 5628 5629 5631 5634 5637 5640 5643 5647 5651 5657 5661 5665 5667 5673 5678 5683 5686 5689 5691 5693
5672 5669 5667 5664 5661 5660 5659 5656 5653 5646 5642 5640 5638 5636 5634 5631 5631 5630 5626 5624 5624 5625 5627 5628 5629 5630 5632 5635 5637 5638 5640 5643 5648 5654 5658 5661 5666 5668 5673 5678 5682 5685 5687
5673 5670 5667 5665 5663 5661 5660 5658 5654 5646 5642 5640 5638 5636 5635 5633 5632 5630 5626 5624 5623 5624 5624 5626 5627 5629 5631 5633 5635 5636 5638 5639 5642 5647 5653 5655 5657 5659 5662 5670 5674 5678 5679